Погода в Бувайде

Узбекистан     40°38′20″N   71°05′02″E
темп.,
°C
ветер,
м/с
пор.,
м/с
влажн.,
%
обл.,
%
осадки,
мм/ч
давл.,
гПа
погр.,
м
22 июня, вт
вт2223:00+27зюз711160 0.0 1009315
02:00+24з13210 0.0 100939
05:00+22в22280 0.0 101144
08:00+28всв34180 0.0 1011750
11:00+33юз12130 0.0 10102008
14:00+35зюз45130 0.0 10072168
17:00+37зюз66110 0.0 10053529
20:00+31зюз711170 0.0 1006383
23 июня, ср
ср2323:00+28юз712200 0.0 1007304
02:00+25зюз38230 0.0 1007209
05:00+22з143040 0.0 100953
08:00+27в33250 0.0 1011576
11:00+33ююз11170 0.0 10101617
14:00+36юз44110 0.0 10082253
17:00+35юз87100 0.0 10071405
20:00+31юз814130 0.0 1006395
24 июня, чт
чт2423:00+27зюз36180 0.0 1007111
02:00+24ссв23220 0.0 100847
05:00+21св34270 0.0 100856
08:00+28всв12190 0.0 1008549
11:00+33юз33130 0.0 10071402
14:00+38зюз56100 0.0 10041933
17:00+38зюз8970 0.0 10013581
20:00+32юз1217120 0.0 1003724
25 июня, пт
пт2523:00+30зюз916180 0.0 1004495
02:00+27зюз714240 0.0 1004290
05:00+24зюз12280 0.0 100628
08:00+30в33190 0.0 1007571
11:00+35ююз35160 0.0 10052385
14:00+38ююз68120 0.0 10023809
17:00+38з7890 0.0 10003485
20:00+32юз813160 0.0 1001420
26 июня, сб
сб2623:00+28юз813230 0.0 1002386
02:00+26зюз59220 0.0 1002268
05:00+23з02290 0.0 100544
08:00+29св45215 0.0 1006947
11:00+34з22155 0.0 10051860
14:00+37зюз44103 0.0 10032087
17:00+37юз76100 0.0 10021668
20:00+32юз8151599 0.0 1002455